• In Hungary
  • List of Countries
  • For 7 days
  • Water Temperature
  • Satellite Maps
  • Weather Map
  • News
  • Weather Widgets
  • user-avatar
    Login

    Hourly Weather Orawka

    Today, 11 December, Monday

    Time Temperature Precipitation Wind Pressure Humidity
    00:00 -4°C° 0.1 mm 6 mps 688 mmHg 79%
    01:00 0°C° 0 mm 1 mps 688 mmHg 84%
    02:00 -2°C° 0 mm 2 mps 688 mmHg 84%
    03:00 -1°C° 0 mm 3 mps 688 mmHg 84%
    04:00 -2°C° 0 mm 4 mps 688 mmHg 84%
    05:00 -2°C° 0.1 mm 5 mps 688 mmHg 84%
    06:00 -1°C° 0.1 mm 5 mps 688 mmHg 83%
    07:00 0°C° 0 mm 3 mps 688 mmHg 85%
    08:00 +1°C° 0 mm 3 mps 689 mmHg 85%
    09:00 0°C° 0 mm 4 mps 689 mmHg 84%
    10:00 +1°C° 0 mm 4 mps 689 mmHg 84%
    11:00 +2°C° 0 mm 5 mps 689 mmHg 84%
    12:00 +2°C° 0 mm 5 mps 689 mmHg 83%
    13:00 +3°C° 0 mm 4 mps 689 mmHg 82%
    14:00 +3°C° 0 mm 4 mps 689 mmHg 83%
    15:00 +2°C° 0 mm 5 mps 689 mmHg 84%
    16:00 +2°C° 0 mm 5 mps 689 mmHg 84%
    17:00 +3°C° 0 mm 5 mps 689 mmHg 84%
    18:00 +3°C° 0 mm 6 mps 689 mmHg 85%
    19:00 +4°C° 0 mm 6 mps 688 mmHg 85%
    20:00 +4°C° 0 mm 6 mps 688 mmHg 85%
    21:00 +4°C° 0 mm 7 mps 688 mmHg 85%
    22:00 +4°C° 0 mm 7 mps 688 mmHg 85%
    23:00 +4°C° 0 mm 7 mps 688 mmHg 84%

    Tomorrow, 12 December, Tuesday

    Time Temperature Precipitation Wind Pressure Humidity
    00:00 +5°C° 0 mm 8 mps 688 mmHg 83%
    01:00 +5°C° 0 mm 8 mps 689 mmHg 82%
    02:00 +5°C° 0 mm 8 mps 689 mmHg 82%
    03:00 +5°C° 0 mm 8 mps 689 mmHg 81%
    04:00 +5°C° 0 mm 8 mps 689 mmHg 81%
    05:00 +5°C° 0 mm 7 mps 690 mmHg 82%
    06:00 +5°C° 0 mm 6 mps 690 mmHg 83%
    07:00 +5°C° 0 mm 6 mps 691 mmHg 84%
    08:00 +6°C° 0.1 mm 5 mps 692 mmHg 85%
    09:00 +6°C° 0.1 mm 5 mps 692 mmHg 86%
    10:00 +6°C° 0.1 mm 4 mps 693 mmHg 87%
    11:00 +5°C° 0 mm 4 mps 694 mmHg 86%
    12:00 +5°C° 0 mm 4 mps 694 mmHg 84%
    13:00 +5°C° 0 mm 4 mps 695 mmHg 83%
    14:00 +4°C° 0 mm 3 mps 696 mmHg 85%
    15:00 +3°C° 0 mm 3 mps 696 mmHg 87%
    16:00 +3°C° 0 mm 2 mps 697 mmHg 89%
    17:00 +3°C° 0 mm 2 mps 697 mmHg 88%
    18:00 +3°C° 0 mm 2 mps 698 mmHg 88%
    19:00 +2°C° 0 mm 2 mps 699 mmHg 88%
    20:00 +2°C° 0.2 mm 2 mps 699 mmHg 86%
    21:00 +2°C° 0.2 mm 2 mps 700 mmHg 84%
    22:00 +1°C° 0.2 mm 2 mps 700 mmHg 82%
    23:00 +1°C° 0.1 mm 2 mps 701 mmHg 82%

    Day after tomorrow, 13 December, Wednesday

    Time Temperature Precipitation Wind Pressure Humidity
    00:00 -1°C° 0.1 mm 2 mps 701 mmHg 82%
    01:00 -1°C° 0.1 mm 2 mps 701 mmHg 82%
    02:00 -1°C° 0 mm 2 mps 702 mmHg 82%
    03:00 -2°C° 0 mm 2 mps 702 mmHg 82%
    04:00 -2°C° 0 mm 2 mps 702 mmHg 82%
    05:00 -2°C° 0 mm 2 mps 702 mmHg 83%
    06:00 0°C° 0 mm 1 mps 702 mmHg 83%
    07:00 0°C° 0 mm 1 mps 703 mmHg 84%
    08:00 0°C° 0 mm 1 mps 703 mmHg 81%
    09:00 0°C° 0 mm 1 mps 703 mmHg 79%
    10:00 +1°C° 0 mm 1 mps 703 mmHg 76%
    11:00 +1°C° 0 mm 1 mps 703 mmHg 73%
    12:00 +2°C° 0 mm 1 mps 703 mmHg 70%
    13:00 +2°C° 0 mm 1 mps 702 mmHg 67%
    14:00 +1°C° 0 mm 1 mps 702 mmHg 72%
    15:00 0°C° 0 mm 1 mps 701 mmHg 78%
    16:00 -1°C° 0 mm 1 mps 701 mmHg 83%
    17:00 -2°C° 0 mm 1 mps 700 mmHg 84%
    18:00 -4°C° 0 mm 2 mps 700 mmHg 85%
    19:00 -4°C° 0 mm 2 mps 700 mmHg 86%
    20:00 -4°C° 0 mm 2 mps 699 mmHg 83%
    21:00 -4°C° 0 mm 2 mps 699 mmHg 80%
    22:00 -4°C° 0 mm 2 mps 698 mmHg 77%
    23:00 -5°C° 0 mm 3 mps 698 mmHg 75%

    14 December, Thursday

    Time Temperature Precipitation Wind Pressure Humidity
    00:00 -5°C° 0 mm 3 mps 697 mmHg 73%
    01:00 -5°C° 0 mm 3 mps 696 mmHg 71%
    02:00 -4°C° 0 mm 3 mps 696 mmHg 71%
    03:00 -4°C° 0 mm 3 mps 695 mmHg 71%
    04:00 -4°C° 0 mm 4 mps 695 mmHg 71%
    05:00 -3°C° 0 mm 4 mps 695 mmHg 73%
    06:00 -3°C° 0 mm 4 mps 694 mmHg 76%
    07:00 -3°C° 0 mm 4 mps 694 mmHg 78%
    08:00 -2°C° 0.1 mm 4 mps 694 mmHg 78%
    09:00 -1°C° 0.1 mm 4 mps 694 mmHg 77%
    10:00 -1°C° 0.1 mm 4 mps 694 mmHg 76%
    11:00 0°C° 0 mm 4 mps 694 mmHg 76%
    12:00 0°C° 0 mm 4 mps 694 mmHg 77%
    13:00 +1°C° 0 mm 4 mps 694 mmHg 77%
    14:00 0°C° 0 mm 4 mps 694 mmHg 80%
    15:00 0°C° 0 mm 3 mps 694 mmHg 83%
    16:00 0°C° 0 mm 3 mps 694 mmHg 86%
    17:00 0°C° 0.1 mm 3 mps 694 mmHg 86%
    18:00 0°C° 0.1 mm 3 mps 694 mmHg 86%
    19:00 -1°C° 0.1 mm 3 mps 694 mmHg 86%
    20:00 -1°C° 0 mm 3 mps 693 mmHg 86%
    21:00 -1°C° 0 mm 2 mps 693 mmHg 86%
    22:00 -1°C° 0 mm 2 mps 692 mmHg 86%
    23:00 -1°C° 0 mm 3 mps 691 mmHg 85%

    15 December, Friday

    Time Temperature Precipitation Wind Pressure Humidity
    00:00 -1°C° 0 mm 3 mps 691 mmHg 83%
    01:00 -1°C° 0 mm 3 mps 690 mmHg 82%
    02:00 -1°C° 0 mm 3 mps 689 mmHg 82%
    03:00 -1°C° 0 mm 3 mps 689 mmHg 82%
    04:00 -1°C° 0 mm 3 mps 688 mmHg 82%
    05:00 -1°C° 0.1 mm 4 mps 688 mmHg 82%
    06:00 -1°C° 0.1 mm 4 mps 689 mmHg 82%
    07:00 -1°C° 0.1 mm 4 mps 689 mmHg 82%
    08:00 -1°C° 0 mm 5 mps 689 mmHg 79%
    09:00 -1°C° 0 mm 5 mps 690 mmHg 76%
    10:00 0°C° 0 mm 5 mps 690 mmHg 73%
    11:00 -1°C° 0 mm 5 mps 691 mmHg 71%
    12:00 -1°C° 0 mm 4 mps 691 mmHg 69%
    13:00 0°C° 0 mm 3 mps 691 mmHg 67%
    14:00 0°C° 0 mm 3 mps 691 mmHg 71%
    15:00 -1°C° 0 mm 2 mps 691 mmHg 75%
    16:00 0°C° 0 mm 1 mps 691 mmHg 80%
    17:00 0°C° 0 mm 1 mps 691 mmHg 79%
    18:00 0°C° 0 mm 1 mps 691 mmHg 79%
    19:00 0°C° 0 mm 1 mps 691 mmHg 79%
    20:00 -1°C° 0 mm 0 mps 691 mmHg 78%
    21:00 -1°C° 0 mm 0 mps 691 mmHg 77%
    22:00 -1°C° 0 mm 0 mps 690 mmHg 76%
    23:00 -1°C° 0.1 mm 0 mps 690 mmHg 78%

    16 December, Saturday

    Time Temperature Precipitation Wind Pressure Humidity
    00:00 0°C° 0.1 mm 1 mps 690 mmHg 80%
    01:00 0°C° 0.1 mm 1 mps 690 mmHg 81%
    02:00 -1°C° 0.4 mm 1 mps 690 mmHg 83%
    03:00 -1°C° 0.4 mm 1 mps 690 mmHg 85%
    04:00 -1°C° 0.4 mm 1 mps 690 mmHg 87%
    05:00 -1°C° 0.1 mm 1 mps 690 mmHg 87%
    06:00 -1°C° 0.1 mm 1 mps 690 mmHg 87%
    07:00 -1°C° 0.1 mm 1 mps 690 mmHg 88%
    08:00 -1°C° 0.1 mm 1 mps 691 mmHg 86%
    09:00 0°C° 0.1 mm 1 mps 691 mmHg 85%
    10:00 0°C° 0.1 mm 1 mps 692 mmHg 83%
    11:00 +1°C° 0 mm 1 mps 692 mmHg 81%
    12:00 +1°C° 0 mm 1 mps 692 mmHg 80%
    13:00 +1°C° 0 mm 1 mps 692 mmHg 78%
    14:00 +1°C° 0 mm 1 mps 693 mmHg 82%
    15:00 0°C° 0 mm 1 mps 693 mmHg 85%
    16:00 -2°C° 0 mm 0 mps 693 mmHg 89%
    17:00 -1°C° 0 mm 1 mps 693 mmHg 89%
    18:00 -1°C° 0 mm 1 mps 694 mmHg 90%
    19:00 -2°C° 0 mm 1 mps 694 mmHg 90%
    20:00 -2°C° 0 mm 1 mps 694 mmHg 91%
    21:00 -2°C° 0 mm 1 mps 695 mmHg 91%
    22:00 -2°C° 0 mm 1 mps 695 mmHg 91%
    23:00 -2°C° 0 mm 1 mps 695 mmHg 91%
    Show more